Year,Month,Day,Hour,Minute,Value (Times are PST for temperature in C)
2013,08,21,00,00,14.50
2013,08,21,00,01,14.50
2013,08,21,00,02,14.40
2013,08,21,00,03,14.40
2013,08,21,00,04,14.40
2013,08,21,00,05,14.40
2013,08,21,00,06,14.40
2013,08,21,00,07,14.40
2013,08,21,00,08,14.40
2013,08,21,00,09,14.40
2013,08,21,00,10,14.40
2013,08,21,00,11,14.40
2013,08,21,00,12,14.40
2013,08,21,00,16,14.30
2013,08,21,00,17,14.30
2013,08,21,00,18,14.30
2013,08,21,00,19,14.30
2013,08,21,00,20,14.20
2013,08,21,00,21,14.20
2013,08,21,00,22,14.20
2013,08,21,00,23,14.20
2013,08,21,00,24,14.20
2013,08,21,00,25,14.20
2013,08,21,00,26,14.10
2013,08,21,00,27,14.10
2013,08,21,00,28,14.10
2013,08,21,00,29,14.00
2013,08,21,00,30,14.00
2013,08,21,00,31,14.00
2013,08,21,00,32,13.90
2013,08,21,00,33,13.90
2013,08,21,00,34,13.90
2013,08,21,00,35,13.90
2013,08,21,00,36,13.80
2013,08,21,00,37,13.80
2013,08,21,00,38,13.70
2013,08,21,00,39,13.70
2013,08,21,00,40,13.70
2013,08,21,00,41,13.70
2013,08,21,00,42,13.70
2013,08,21,00,43,13.70
2013,08,21,00,44,13.70
2013,08,21,00,45,13.60
2013,08,21,00,46,13.60
2013,08,21,00,47,13.60
2013,08,21,00,48,13.50
2013,08,21,00,49,13.50
2013,08,21,00,50,13.50
2013,08,21,00,51,13.50
2013,08,21,00,52,13.40
2013,08,21,00,53,13.40
2013,08,21,00,54,13.40
2013,08,21,00,55,13.30
2013,08,21,00,56,13.30
2013,08,21,00,57,13.30
2013,08,21,00,58,13.30
2013,08,21,00,59,13.30
2013,08,21,01,00,13.30
2013,08,21,01,01,13.20
2013,08,21,01,02,13.20
2013,08,21,01,03,13.20
2013,08,21,01,04,13.10
2013,08,21,01,05,13.10
2013,08,21,01,06,13.10
2013,08,21,01,07,13.00
2013,08,21,01,08,13.00
2013,08,21,01,09,13.00
2013,08,21,01,10,12.90
2013,08,21,01,11,12.90
2013,08,21,01,12,12.80
2013,08,21,01,13,12.80
2013,08,21,01,14,12.80
2013,08,21,01,15,12.80
2013,08,21,01,16,12.80
2013,08,21,01,17,12.70
2013,08,21,01,18,12.70
2013,08,21,01,19,12.70
2013,08,21,01,20,12.70
2013,08,21,01,21,12.70
2013,08,21,01,22,12.60
2013,08,21,01,23,12.60
2013,08,21,01,24,12.60
2013,08,21,01,25,12.60
2013,08,21,01,26,12.60
2013,08,21,01,27,12.60
2013,08,21,01,28,12.60
2013,08,21,01,29,12.60
2013,08,21,01,30,12.60
2013,08,21,01,31,12.60
2013,08,21,01,32,12.60
2013,08,21,01,33,12.60
2013,08,21,01,34,12.50
2013,08,21,01,35,12.50
2013,08,21,01,36,12.50
2013,08,21,01,37,12.50
2013,08,21,01,38,12.40
2013,08,21,01,39,12.40
2013,08,21,01,40,12.40
2013,08,21,01,41,12.40
2013,08,21,01,42,12.30
2013,08,21,01,43,12.30
2013,08,21,01,44,12.30
2013,08,21,01,45,12.30
2013,08,21,01,46,12.30
2013,08,21,01,47,12.30
2013,08,21,01,48,12.30
2013,08,21,01,49,12.30
2013,08,21,01,50,12.20
2013,08,21,01,51,12.20
2013,08,21,01,52,12.20
2013,08,21,01,53,12.20
2013,08,21,01,54,12.20
2013,08,21,01,55,12.10
2013,08,21,01,56,12.20
2013,08,21,01,57,12.20
2013,08,21,01,58,12.20
2013,08,21,01,59,12.20
2013,08,21,02,00,12.20
2013,08,21,02,01,12.20
2013,08,21,02,02,12.20
2013,08,21,02,03,12.20
2013,08,21,02,04,12.20
2013,08,21,02,05,12.10
2013,08,21,02,06,12.10
2013,08,21,02,07,12.10
2013,08,21,02,08,12.10
2013,08,21,02,09,12.10
2013,08,21,02,10,12.00
2013,08,21,02,11,12.00
2013,08,21,02,12,12.00
2013,08,21,02,13,11.90
2013,08,21,02,14,11.90
2013,08,21,02,15,11.90
2013,08,21,02,16,11.90
2013,08,21,02,17,11.90
2013,08,21,02,18,11.80
2013,08,21,02,19,11.80
2013,08,21,02,20,11.80
2013,08,21,02,21,11.80
2013,08,21,02,22,11.80
2013,08,21,02,23,11.80
2013,08,21,02,24,11.80
2013,08,21,02,25,11.80
2013,08,21,02,26,11.80
2013,08,21,02,27,11.70
2013,08,21,02,28,11.70
2013,08,21,02,29,11.70
2013,08,21,02,30,11.70
2013,08,21,02,31,11.70
2013,08,21,02,32,11.70
2013,08,21,02,33,11.70
2013,08,21,02,34,11.70
2013,08,21,02,35,11.70
2013,08,21,02,36,11.60
2013,08,21,02,37,11.60
2013,08,21,02,38,11.60
2013,08,21,02,39,11.60
2013,08,21,02,40,11.60
2013,08,21,02,41,11.60
2013,08,21,02,42,11.60
2013,08,21,02,43,11.60
2013,08,21,02,44,11.60
2013,08,21,02,45,11.60
2013,08,21,02,46,11.60
2013,08,21,02,47,11.60
2013,08,21,02,48,11.50
2013,08,21,02,49,11.40
2013,08,21,02,50,11.40
2013,08,21,02,51,11.40
2013,08,21,02,52,11.40
2013,08,21,02,53,11.40
2013,08,21,02,54,11.40
2013,08,21,02,55,11.40
2013,08,21,02,56,11.40
2013,08,21,02,57,11.40
2013,08,21,02,58,11.40
2013,08,21,02,59,11.40
2013,08,21,03,00,11.40
2013,08,21,03,01,11.40
2013,08,21,03,02,11.30
2013,08,21,03,03,11.30
2013,08,21,03,04,11.30
2013,08,21,03,05,11.30
2013,08,21,03,06,11.30
2013,08,21,03,07,11.30
2013,08,21,03,08,11.20
2013,08,21,03,09,11.20
2013,08,21,03,10,11.20
2013,08,21,03,11,11.20
2013,08,21,03,12,11.20
2013,08,21,03,13,11.10
2013,08,21,03,14,11.10
2013,08,21,03,15,11.10
2013,08,21,03,16,11.10
2013,08,21,03,17,11.10
2013,08,21,03,18,11.10
2013,08,21,03,19,11.10
2013,08,21,03,20,11.10
2013,08,21,03,21,11.10
2013,08,21,03,22,11.00
2013,08,21,03,23,10.90
2013,08,21,03,24,10.90
2013,08,21,03,25,10.90
2013,08,21,03,26,10.90
2013,08,21,03,27,10.90
2013,08,21,03,28,10.90
2013,08,21,03,29,11.10
2013,08,21,03,30,11.10
2013,08,21,03,31,11.10
2013,08,21,03,32,11.10
2013,08,21,03,33,11.10
2013,08,21,03,34,11.10
2013,08,21,03,35,11.10
2013,08,21,03,36,11.10
2013,08,21,03,37,11.10
2013,08,21,03,38,11.10
2013,08,21,03,39,11.10
2013,08,21,03,40,11.10
2013,08,21,03,41,11.10
2013,08,21,03,42,11.10
2013,08,21,03,43,11.10
2013,08,21,03,44,11.00
2013,08,21,03,45,10.90
2013,08,21,03,46,10.90
2013,08,21,03,47,10.90
2013,08,21,03,48,10.90
2013,08,21,03,49,10.90
2013,08,21,03,50,10.90
2013,08,21,03,51,10.90
2013,08,21,03,52,10.90
2013,08,21,03,53,10.90
2013,08,21,03,54,10.90
2013,08,21,03,55,10.90
2013,08,21,03,56,10.90
2013,08,21,03,57,10.90
2013,08,21,03,58,10.90
2013,08,21,03,59,10.90
2013,08,21,04,00,10.80
2013,08,21,04,01,10.80
2013,08,21,04,02,10.80
2013,08,21,04,03,10.80
2013,08,21,04,04,10.80
2013,08,21,04,05,10.80
2013,08,21,04,06,10.70
2013,08,21,04,07,10.70
2013,08,21,04,08,10.70
2013,08,21,04,09,10.70
2013,08,21,04,10,10.70
2013,08,21,04,11,10.70
2013,08,21,04,12,10.70
2013,08,21,04,13,10.70
2013,08,21,04,14,10.70
2013,08,21,04,15,10.70
2013,08,21,04,16,10.70
2013,08,21,04,17,10.70
2013,08,21,04,18,10.70
2013,08,21,04,19,10.70
2013,08,21,04,20,10.70
2013,08,21,04,21,10.70
2013,08,21,04,22,10.70
2013,08,21,04,23,10.70
2013,08,21,04,24,10.70
2013,08,21,04,25,10.70
2013,08,21,04,26,10.70
2013,08,21,04,27,10.70
2013,08,21,04,28,10.60
2013,08,21,04,29,10.60
2013,08,21,04,30,10.60
2013,08,21,04,31,10.60
2013,08,21,04,32,10.60
2013,08,21,04,33,10.60
2013,08,21,04,34,10.60
2013,08,21,04,35,10.60
2013,08,21,04,36,10.60
2013,08,21,04,37,10.60
2013,08,21,04,38,10.60
2013,08,21,04,39,10.60
2013,08,21,04,40,10.60
2013,08,21,04,41,10.60
2013,08,21,04,42,10.60
2013,08,21,04,43,10.60
2013,08,21,04,44,10.60
2013,08,21,04,45,10.60
2013,08,21,04,46,10.60
2013,08,21,04,47,10.60
2013,08,21,04,48,10.60
2013,08,21,04,49,10.60
2013,08,21,04,50,10.60
2013,08,21,04,51,10.50
2013,08,21,04,52,10.60
2013,08,21,04,53,10.60
2013,08,21,04,54,10.60
2013,08,21,04,55,10.60
2013,08,21,04,56,10.60
2013,08,21,04,57,10.50
2013,08,21,04,58,10.40
2013,08,21,04,59,10.40
2013,08,21,05,00,10.40
2013,08,21,05,01,10.40
2013,08,21,05,02,10.40
2013,08,21,05,03,10.40
2013,08,21,05,04,10.40
2013,08,21,05,05,10.40
2013,08,21,05,06,10.40
2013,08,21,05,07,10.40
2013,08,21,05,08,10.40
2013,08,21,05,09,10.40
2013,08,21,05,10,10.40
2013,08,21,05,11,10.40
2013,08,21,05,12,10.40
2013,08,21,05,13,10.30
2013,08,21,05,14,10.30
2013,08,21,05,15,10.30
2013,08,21,05,16,10.30
2013,08,21,05,17,10.30
2013,08,21,05,18,10.30
2013,08,21,05,19,10.30
2013,08,21,05,20,10.30
2013,08,21,05,21,10.30
2013,08,21,05,22,10.30
2013,08,21,05,23,10.30
2013,08,21,05,24,10.30
2013,08,21,05,25,10.30
2013,08,21,05,26,10.30
2013,08,21,05,27,10.30
2013,08,21,05,28,10.30
2013,08,21,05,29,10.20
2013,08,21,05,30,10.20
2013,08,21,05,31,10.20
2013,08,21,05,32,10.20
2013,08,21,05,33,10.20
2013,08,21,05,34,10.20
2013,08,21,05,35,10.20
2013,08,21,05,36,10.20
2013,08,21,05,37,10.20
2013,08,21,05,38,10.20
2013,08,21,05,39,10.20
2013,08,21,05,40,10.20
2013,08,21,05,41,10.20
2013,08,21,05,42,10.20
2013,08,21,05,43,10.20
2013,08,21,05,44,10.20
2013,08,21,05,45,10.20
2013,08,21,05,46,10.20
2013,08,21,05,47,10.20
2013,08,21,05,48,10.10
2013,08,21,05,49,10.10
2013,08,21,05,50,10.10
2013,08,21,05,51,10.10
2013,08,21,05,52,10.10
2013,08,21,05,53,10.10
2013,08,21,05,54,10.10
2013,08,21,05,55,10.10
2013,08,21,05,56,10.10
2013,08,21,05,57,10.10
2013,08,21,05,58,10.10
2013,08,21,05,59,10.10
2013,08,21,06,00,10.10
2013,08,21,06,01,10.10
2013,08,21,06,02,10.10
2013,08,21,06,03,10.10
2013,08,21,06,04,10.10
2013,08,21,06,05,10.10
2013,08,21,06,06,10.10
2013,08,21,06,07,10.10
2013,08,21,06,08,10.10
2013,08,21,06,09,10.10
2013,08,21,06,10,10.10
2013,08,21,06,11,10.10
2013,08,21,06,12,10.10
2013,08,21,06,13,10.10
2013,08,21,06,14,10.00
2013,08,21,06,15,9.90
2013,08,21,06,16,9.90
2013,08,21,06,17,9.90
2013,08,21,06,18,9.90
2013,08,21,06,19,9.90
2013,08,21,06,20,9.90
2013,08,21,06,21,9.90
2013,08,21,06,22,9.90
2013,08,21,06,23,9.90
2013,08,21,06,24,9.90
2013,08,21,06,25,9.90
2013,08,21,06,26,9.90
2013,08,21,06,27,9.90
2013,08,21,06,28,9.90
2013,08,21,06,29,9.90
2013,08,21,06,30,9.90
2013,08,21,06,31,9.90
2013,08,21,06,32,9.90
2013,08,21,06,33,10.00
2013,08,21,06,34,10.10
2013,08,21,06,35,10.10
2013,08,21,06,36,10.10
2013,08,21,06,37,10.10
2013,08,21,06,38,10.10
2013,08,21,06,39,10.10
2013,08,21,06,40,10.10
2013,08,21,06,41,10.10
2013,08,21,06,42,10.10
2013,08,21,06,43,10.10
2013,08,21,06,44,10.10
2013,08,21,06,45,10.10
2013,08,21,06,46,10.10
2013,08,21,06,47,10.10
2013,08,21,06,48,10.10
2013,08,21,06,49,10.10
2013,08,21,06,50,10.10
2013,08,21,06,51,10.10
2013,08,21,06,52,10.10
2013,08,21,06,53,10.10
2013,08,21,06,54,10.10
2013,08,21,06,55,10.10
2013,08,21,06,56,10.10
2013,08,21,06,57,10.10
2013,08,21,06,58,10.10
2013,08,21,06,59,10.10
2013,08,21,07,00,10.10
2013,08,21,07,01,10.10
2013,08,21,07,02,10.10
2013,08,21,07,03,10.10
2013,08,21,07,04,10.10
2013,08,21,07,05,10.20
2013,08,21,07,06,10.20
2013,08,21,07,07,10.20
2013,08,21,07,08,10.20
2013,08,21,07,09,10.30
2013,08,21,07,10,10.30
2013,08,21,07,11,10.40
2013,08,21,07,12,10.40
2013,08,21,07,13,10.50
2013,08,21,07,14,10.60
2013,08,21,07,15,10.60
2013,08,21,07,16,10.70
2013,08,21,07,17,10.80
2013,08,21,07,18,10.80
2013,08,21,07,19,10.90
2013,08,21,07,20,10.90
2013,08,21,07,21,11.00
2013,08,21,07,22,11.10
2013,08,21,07,23,11.10
2013,08,21,07,24,11.20
2013,08,21,07,25,11.30
2013,08,21,07,26,11.30
2013,08,21,07,27,11.40
2013,08,21,07,28,11.40
2013,08,21,07,29,11.50
2013,08,21,07,30,11.60
2013,08,21,07,31,11.60
2013,08,21,07,32,11.60
2013,08,21,07,33,11.70
2013,08,21,07,34,11.70
2013,08,21,07,35,11.80
2013,08,21,07,36,11.90
2013,08,21,07,37,12.00
2013,08,21,07,38,12.00
2013,08,21,07,39,12.10
2013,08,21,07,40,12.20
2013,08,21,07,41,12.30
2013,08,21,07,42,12.40
2013,08,21,07,43,12.50
2013,08,21,07,44,12.60
2013,08,21,07,45,12.80
2013,08,21,07,46,12.90
2013,08,21,07,47,13.00
2013,08,21,07,48,13.20
2013,08,21,07,49,13.40
2013,08,21,07,50,13.50
2013,08,21,07,51,13.60
2013,08,21,07,52,13.70
2013,08,21,07,53,13.70
2013,08,21,07,54,13.70
2013,08,21,07,55,13.80
2013,08,21,07,56,13.90
2013,08,21,07,57,14.00
2013,08,21,07,58,14.00
2013,08,21,07,59,14.20
2013,08,21,08,00,14.20
2013,08,21,08,01,14.30
2013,08,21,08,02,14.40
2013,08,21,08,03,14.50
2013,08,21,08,04,14.60
2013,08,21,08,05,14.70
2013,08,21,08,06,14.80
2013,08,21,08,07,14.90
2013,08,21,08,08,15.00
2013,08,21,08,09,15.00
2013,08,21,08,10,15.10
2013,08,21,08,11,15.10
2013,08,21,08,12,15.10
2013,08,21,08,13,15.10
2013,08,21,08,14,15.20
2013,08,21,08,15,15.20
2013,08,21,08,16,15.30
2013,08,21,08,17,15.40
2013,08,21,08,18,15.50
2013,08,21,08,19,15.50
2013,08,21,08,20,15.60
2013,08,21,08,21,15.60
2013,08,21,08,22,15.70
2013,08,21,08,23,15.80
2013,08,21,08,24,15.90
2013,08,21,08,25,16.00
2013,08,21,08,26,16.10
2013,08,21,08,27,16.10
2013,08,21,08,28,16.10
2013,08,21,08,29,16.10
2013,08,21,08,30,16.20
2013,08,21,08,31,16.30
2013,08,21,08,32,16.40
2013,08,21,08,33,16.50
2013,08,21,08,34,16.70
2013,08,21,08,35,16.80
2013,08,21,08,36,16.90
2013,08,21,08,37,17.00
2013,08,21,08,38,17.00
2013,08,21,08,39,17.10
2013,08,21,08,40,17.10
2013,08,21,08,41,17.10
2013,08,21,08,42,17.20
2013,08,21,08,43,17.20
2013,08,21,08,44,17.30
2013,08,21,08,45,17.30
2013,08,21,08,46,17.40
2013,08,21,08,47,17.50
2013,08,21,08,48,17.70
2013,08,21,08,49,17.80
2013,08,21,08,50,17.90
2013,08,21,08,51,18.00
2013,08,21,08,52,18.20
2013,08,21,08,53,18.30
2013,08,21,08,54,18.40
2013,08,21,08,55,18.50
2013,08,21,08,56,18.60
2013,08,21,08,57,18.80
2013,08,21,08,58,18.80
2013,08,21,08,59,18.80
2013,08,21,09,00,18.80
2013,08,21,09,01,18.80
2013,08,21,09,02,18.80
2013,08,21,09,03,18.80
2013,08,21,09,04,18.80
2013,08,21,09,05,18.80
2013,08,21,09,06,18.80
2013,08,21,09,07,18.80
2013,08,21,09,08,18.80
2013,08,21,09,09,18.80
2013,08,21,09,10,18.80
2013,08,21,09,11,18.90
2013,08,21,09,12,19.00
2013,08,21,09,13,19.10
2013,08,21,09,14,19.10
2013,08,21,09,15,19.10
2013,08,21,09,16,19.10
2013,08,21,09,17,19.10
2013,08,21,09,18,19.10
2013,08,21,09,19,19.20
2013,08,21,09,20,19.20
2013,08,21,09,21,19.20
2013,08,21,09,22,19.10
2013,08,21,09,23,19.10
2013,08,21,09,24,19.20
2013,08,21,09,25,19.20
2013,08,21,09,26,19.30
2013,08,21,09,27,19.40
2013,08,21,09,28,19.40
2013,08,21,09,29,19.50
2013,08,21,09,30,19.50
2013,08,21,09,31,19.60
2013,08,21,09,32,19.60
2013,08,21,09,33,19.60
2013,08,21,09,34,19.60
2013,08,21,09,35,19.70
2013,08,21,09,36,19.70
2013,08,21,09,37,19.80
2013,08,21,09,38,19.80
2013,08,21,09,39,19.80
2013,08,21,09,40,19.90
2013,08,21,09,41,19.90
2013,08,21,09,42,19.90
2013,08,21,09,43,20.00
2013,08,21,09,44,20.10
2013,08,21,09,45,20.10
2013,08,21,09,46,20.10
2013,08,21,09,47,20.20
2013,08,21,09,48,20.20
2013,08,21,09,49,20.20
2013,08,21,09,50,20.20
2013,08,21,09,51,20.30
2013,08,21,09,52,20.40
2013,08,21,09,53,20.40
2013,08,21,09,54,20.40
2013,08,21,09,55,20.50
2013,08,21,09,56,20.60
2013,08,21,09,57,20.70
2013,08,21,09,58,20.80
2013,08,21,09,59,20.90
2013,08,21,10,00,20.90
2013,08,21,10,01,20.90
2013,08,21,10,02,20.90
2013,08,21,10,03,21.00
2013,08,21,10,04,21.10
2013,08,21,10,05,21.10
2013,08,21,10,06,21.20
2013,08,21,10,07,21.30
2013,08,21,10,08,21.30
2013,08,21,10,09,21.40
2013,08,21,10,10,21.50
2013,08,21,10,11,21.60
2013,08,21,10,12,21.60
2013,08,21,10,13,21.60
2013,08,21,10,14,21.60
2013,08,21,10,15,21.60
2013,08,21,10,16,21.60
2013,08,21,10,17,21.60
2013,08,21,10,18,21.60
2013,08,21,10,19,21.60
2013,08,21,10,20,21.60
2013,08,21,10,21,21.60
2013,08,21,10,22,21.60
2013,08,21,10,23,21.60
2013,08,21,10,24,21.70
2013,08,21,10,25,21.70
2013,08,21,10,26,21.80
2013,08,21,10,27,21.80
2013,08,21,10,28,21.80
2013,08,21,10,29,21.80
2013,08,21,10,30,21.80
2013,08,21,10,31,21.80
2013,08,21,10,32,21.80
2013,08,21,10,33,21.90
2013,08,21,10,34,21.90
2013,08,21,10,35,22.00
2013,08,21,10,36,22.00
2013,08,21,10,37,22.00
2013,08,21,10,38,22.10
2013,08,21,10,39,22.10
2013,08,21,10,40,22.10
2013,08,21,10,41,22.20
2013,08,21,10,42,22.20
2013,08,21,10,43,22.30
2013,08,21,10,44,22.30
2013,08,21,10,45,22.40
2013,08,21,10,46,22.40
2013,08,21,10,47,22.40
2013,08,21,10,48,22.50
2013,08,21,10,49,22.60
2013,08,21,10,50,22.60
2013,08,21,10,51,22.70
2013,08,21,10,52,22.70
2013,08,21,10,53,22.70
2013,08,21,10,54,22.60
2013,08,21,10,55,22.50
2013,08,21,10,56,22.50
2013,08,21,10,57,22.30
2013,08,21,10,58,22.20
2013,08,21,10,59,22.20
2013,08,21,11,00,22.20
2013,08,21,11,01,22.10
2013,08,21,11,02,22.00
2013,08,21,11,03,22.00
2013,08,21,11,04,21.90
2013,08,21,11,05,21.60
2013,08,21,11,06,21.30
2013,08,21,11,07,20.90
2013,08,21,11,08,20.60
2013,08,21,11,09,20.40
2013,08,21,11,10,20.20
2013,08,21,11,11,20.00
2013,08,21,11,12,19.90
2013,08,21,11,13,19.90
2013,08,21,11,14,19.90
2013,08,21,11,15,19.90
2013,08,21,11,16,19.90
2013,08,21,11,17,20.00
2013,08,21,11,18,20.10
2013,08,21,11,19,20.10
2013,08,21,11,20,20.10
2013,08,21,11,21,20.20
2013,08,21,11,22,20.20
2013,08,21,11,23,20.20
2013,08,21,11,24,20.20
2013,08,21,11,25,20.20
2013,08,21,11,26,20.30
2013,08,21,11,27,20.40
2013,08,21,11,28,20.50
2013,08,21,11,29,20.50
2013,08,21,11,30,20.60
2013,08,21,11,31,20.70
2013,08,21,11,32,20.70
2013,08,21,11,33,20.80
2013,08,21,11,34,20.90
2013,08,21,11,35,21.10
2013,08,21,11,36,21.20
2013,08,21,11,37,21.30
2013,08,21,11,38,21.40
2013,08,21,11,39,21.50
2013,08,21,11,40,21.60
2013,08,21,11,41,21.60
2013,08,21,11,42,21.50
2013,08,21,11,43,21.40
2013,08,21,11,44,21.50
2013,08,21,11,45,21.50
2013,08,21,11,46,21.50
2013,08,21,11,47,21.60
2013,08,21,11,48,21.60
2013,08,21,11,49,21.50
2013,08,21,11,50,21.40
2013,08,21,11,51,21.60
2013,08,21,11,52,21.60
2013,08,21,11,53,21.60
2013,08,21,11,54,21.60
2013,08,21,11,55,21.70
2013,08,21,11,56,21.70
2013,08,21,11,57,21.70
2013,08,21,11,58,21.70
2013,08,21,11,59,21.80
2013,08,21,12,00,21.70
2013,08,21,12,01,21.70
2013,08,21,12,02,21.60
2013,08,21,12,03,21.60
2013,08,21,12,04,21.60
2013,08,21,12,05,21.70
2013,08,21,12,06,21.80
2013,08,21,12,07,22.00
2013,08,21,12,08,22.00
2013,08,21,12,09,22.10
2013,08,21,12,10,22.20
2013,08,21,12,11,22.30
2013,08,21,12,12,22.40
2013,08,21,12,13,22.50
2013,08,21,12,14,22.40
2013,08,21,12,15,22.40
2013,08,21,12,16,22.40
2013,08,21,12,17,22.50
2013,08,21,12,18,22.50
2013,08,21,12,19,22.60
2013,08,21,12,20,22.60
2013,08,21,12,21,22.70
2013,08,21,12,22,22.80
2013,08,21,12,23,22.80
2013,08,21,12,24,22.80
2013,08,21,12,25,22.90
2013,08,21,12,26,22.90
2013,08,21,12,27,23.10
2013,08,21,12,28,23.20
2013,08,21,12,29,23.20
2013,08,21,12,30,23.20
2013,08,21,12,31,23.20
2013,08,21,12,32,23.20
2013,08,21,12,33,23.30
2013,08,21,12,34,23.40
2013,08,21,12,35,23.50
2013,08,21,12,36,23.60
2013,08,21,12,37,23.60
2013,08,21,12,38,23.60
2013,08,21,12,39,23.70
2013,08,21,12,40,23.70
2013,08,21,12,41,23.70
2013,08,21,12,42,23.70
2013,08,21,12,43,23.70
2013,08,21,12,44,23.70
2013,08,21,12,45,23.70
2013,08,21,12,46,23.50
2013,08,21,12,47,23.40
2013,08,21,12,48,23.30
2013,08,21,12,49,23.40
2013,08,21,12,50,23.40
2013,08,21,12,51,23.30
2013,08,21,12,52,23.20
2013,08,21,12,53,23.20
2013,08,21,12,54,23.20
2013,08,21,12,55,23.30
2013,08,21,12,56,23.40
2013,08,21,12,57,23.50
2013,08,21,12,58,23.60
2013,08,21,12,59,23.60
2013,08,21,13,00,23.50
2013,08,21,13,01,23.40
2013,08,21,13,02,23.50
2013,08,21,13,03,23.40
2013,08,21,13,04,23.30
2013,08,21,13,05,23.10
2013,08,21,13,06,22.90
2013,08,21,13,07,22.90
2013,08,21,13,08,22.80
2013,08,21,13,09,22.80
2013,08,21,13,10,22.80
2013,08,21,13,11,22.80
2013,08,21,13,12,22.80
2013,08,21,13,13,22.80
2013,08,21,13,14,22.70
2013,08,21,13,15,22.50
2013,08,21,13,16,22.30
2013,08,21,13,17,22.30
2013,08,21,13,18,22.20
2013,08,21,13,19,22.20
2013,08,21,13,20,22.10
2013,08,21,13,21,22.10
2013,08,21,13,22,22.10
2013,08,21,13,23,22.10
2013,08,21,13,24,22.10
2013,08,21,13,25,22.10
2013,08,21,13,26,22.10
2013,08,21,13,27,22.00
2013,08,21,13,28,22.00
2013,08,21,13,29,22.00
2013,08,21,13,30,22.10
2013,08,21,13,31,22.10
2013,08,21,13,32,22.10
2013,08,21,13,33,22.20
2013,08,21,13,34,22.30
2013,08,21,13,35,22.30
2013,08,21,13,36,22.40
2013,08,21,13,37,22.40
2013,08,21,13,38,22.50
2013,08,21,13,39,22.60
2013,08,21,13,40,22.70
2013,08,21,13,41,22.70
2013,08,21,13,42,22.80
2013,08,21,13,43,22.90
2013,08,21,13,44,22.90
2013,08,21,13,45,23.00
2013,08,21,13,46,23.10
2013,08,21,13,47,23.30
2013,08,21,13,48,23.40
2013,08,21,13,49,23.40
2013,08,21,13,50,23.50
2013,08,21,13,51,23.60
2013,08,21,13,52,23.40
2013,08,21,13,53,23.40
2013,08,21,13,54,23.30
2013,08,21,13,55,23.30
2013,08,21,13,56,23.40
2013,08,21,13,57,23.50
2013,08,21,13,58,23.50
2013,08,21,13,59,23.30
2013,08,21,14,00,23.30
2013,08,21,14,01,23.30
2013,08,21,14,02,23.20
2013,08,21,14,03,23.20
2013,08,21,14,04,23.10
2013,08,21,14,05,23.00
2013,08,21,14,06,22.90
2013,08,21,14,07,22.90
2013,08,21,14,08,23.10
2013,08,21,14,09,23.10
2013,08,21,14,10,23.20
2013,08,21,14,11,23.30
2013,08,21,14,12,23.40
2013,08,21,14,13,23.40
2013,08,21,14,14,23.60
2013,08,21,14,15,23.70
2013,08,21,14,16,23.80
2013,08,21,14,17,23.90
2013,08,21,14,18,23.90
2013,08,21,14,19,23.90
2013,08,21,14,20,23.80
2013,08,21,14,21,23.70
2013,08,21,14,22,23.70
2013,08,21,14,23,23.70
2013,08,21,14,24,23.70
2013,08,21,14,25,23.70
2013,08,21,14,26,23.60
2013,08,21,14,27,23.60
2013,08,21,14,28,23.70
2013,08,21,14,29,23.70
2013,08,21,14,30,23.70
2013,08,21,14,31,23.70
2013,08,21,14,32,23.80
2013,08,21,14,33,23.90
2013,08,21,14,34,23.90
2013,08,21,14,35,23.90
2013,08,21,14,36,23.90
2013,08,21,14,37,24.10
2013,08,21,14,38,24.10
2013,08,21,14,39,24.10
2013,08,21,14,40,24.20
2013,08,21,14,41,24.30
2013,08,21,14,42,24.30
2013,08,21,14,43,24.30
2013,08,21,14,44,24.30
2013,08,21,14,45,24.40
2013,08,21,14,46,24.40
2013,08,21,14,47,24.40
2013,08,21,14,48,24.40
2013,08,21,14,49,24.40
2013,08,21,14,50,24.20
2013,08,21,14,51,24.20
2013,08,21,14,52,24.10
2013,08,21,14,53,24.10
2013,08,21,14,54,24.10
2013,08,21,14,55,24.10
2013,08,21,14,56,24.10
2013,08,21,14,57,24.10
2013,08,21,14,58,24.10
2013,08,21,14,59,24.10
2013,08,21,15,00,24.10
2013,08,21,15,01,24.10
2013,08,21,15,02,24.20
2013,08,21,15,03,24.30
2013,08,21,15,04,24.30
2013,08,21,15,05,24.30
2013,08,21,15,06,24.30
2013,08,21,15,07,24.30
2013,08,21,15,08,24.40
2013,08,21,15,09,24.40
2013,08,21,15,10,24.50
2013,08,21,15,11,24.40
2013,08,21,15,12,24.40
2013,08,21,15,13,24.30
2013,08,21,15,14,24.30
2013,08,21,15,15,24.40
2013,08,21,15,16,24.40
2013,08,21,15,17,24.40
2013,08,21,15,18,24.50
2013,08,21,15,19,24.60
2013,08,21,15,20,24.70
2013,08,21,15,21,24.70
2013,08,21,15,22,24.80
2013,08,21,15,23,24.80
2013,08,21,15,24,24.80
2013,08,21,15,25,24.90
2013,08,21,15,26,24.90
2013,08,21,15,27,24.80
2013,08,21,15,28,24.90
2013,08,21,15,29,24.90
2013,08,21,15,30,25.00
2013,08,21,15,31,25.00
2013,08,21,15,32,25.10
2013,08,21,15,33,25.10
2013,08,21,15,34,25.10
2013,08,21,15,35,25.10
2013,08,21,15,36,25.00
2013,08,21,15,37,25.00
2013,08,21,15,38,25.00
2013,08,21,15,39,24.90
2013,08,21,15,40,24.90
2013,08,21,15,41,24.90
2013,08,21,15,42,24.90
2013,08,21,15,43,25.00
2013,08,21,15,44,25.00
2013,08,21,15,45,25.00
2013,08,21,15,46,25.00
2013,08,21,15,47,25.00
2013,08,21,15,48,24.90
2013,08,21,15,49,24.70
2013,08,21,15,50,24.50
2013,08,21,15,51,24.50
2013,08,21,15,52,24.50
2013,08,21,15,53,24.50
2013,08,21,15,54,24.50
2013,08,21,15,55,24.50
2013,08,21,15,56,24.50
2013,08,21,15,57,24.60
2013,08,21,15,58,24.60
2013,08,21,15,59,24.60
2013,08,21,16,00,24.50
2013,08,21,16,01,24.40
2013,08,21,16,02,24.30
2013,08,21,16,03,24.40
2013,08,21,16,04,24.40
2013,08,21,16,05,24.50
2013,08,21,16,06,24.60
2013,08,21,16,07,24.70
2013,08,21,16,08,24.70
2013,08,21,16,09,24.60
2013,08,21,16,10,24.60
2013,08,21,16,11,24.60
2013,08,21,16,12,24.60
2013,08,21,16,13,24.70
2013,08,21,16,14,24.70
2013,08,21,16,15,24.70
2013,08,21,16,16,24.70
2013,08,21,16,17,24.60
2013,08,21,16,18,24.70
2013,08,21,16,19,24.70
2013,08,21,16,20,24.80
2013,08,21,16,21,24.90
2013,08,21,16,22,25.00
2013,08,21,16,23,25.20
2013,08,21,16,24,25.40
2013,08,21,16,25,25.40
2013,08,21,16,26,25.40
2013,08,21,16,27,25.40
2013,08,21,16,28,25.40
2013,08,21,16,29,25.30
2013,08,21,16,30,25.30
2013,08,21,16,31,25.30
2013,08,21,16,32,25.40
2013,08,21,16,33,25.40
2013,08,21,16,34,25.40
2013,08,21,16,35,25.30
2013,08,21,16,36,25.20
2013,08,21,16,37,25.20
2013,08,21,16,38,25.20
2013,08,21,16,39,25.20
2013,08,21,16,40,25.20
2013,08,21,16,41,25.10
2013,08,21,16,42,25.10
2013,08,21,16,43,25.10
2013,08,21,16,44,25.10
2013,08,21,16,45,25.00
2013,08,21,16,46,25.00
2013,08,21,16,47,25.00
2013,08,21,16,48,24.90
2013,08,21,16,49,24.80
2013,08,21,16,50,24.60
2013,08,21,16,51,24.50
2013,08,21,16,52,24.40
2013,08,21,16,53,24.30
2013,08,21,16,54,24.30
2013,08,21,16,55,24.30
2013,08,21,16,56,24.30
2013,08,21,16,57,24.40
2013,08,21,16,58,24.40
2013,08,21,16,59,24.40
2013,08,21,17,00,24.40
2013,08,21,17,01,24.40
2013,08,21,17,02,24.30
2013,08,21,17,03,24.20
2013,08,21,17,04,24.20
2013,08,21,17,05,24.20
2013,08,21,17,06,24.20
2013,08,21,17,07,24.20
2013,08,21,17,08,24.20
2013,08,21,17,09,24.10
2013,08,21,17,10,24.10
2013,08,21,17,11,24.00
2013,08,21,17,12,23.90
2013,08,21,17,13,23.90
2013,08,21,17,14,23.90
2013,08,21,17,15,23.90
2013,08,21,17,16,23.90
2013,08,21,17,17,23.90
2013,08,21,17,18,23.80
2013,08,21,17,19,23.80
2013,08,21,17,20,23.90
2013,08,21,17,21,23.90
2013,08,21,17,22,23.90
2013,08,21,17,23,23.80